Regional Weather Roundup
Issued by NWS

Home | Current Version | Previous Version | Text Only | Print | Product List | Glossary On
Versions: 1 2 3 4 5 6 7 8 9 10 11 12 13 14 15 16 17 18 19 20 21 22 23 24 25 26 27 28 29 30 31 32 33 34 35 36 37 38 39 40 41 42 43 44 45 46 47 48 49 50
000
ASUS43 KDTX 242110
RWRMI
MICHIGAN HOURLY REGIONAL WEATHER ROUNDUP
NATIONAL WEATHER SERVICE DETROIT/PONTIAC MI
500 PM EDT THU JUL 24 2014

NOTE: "FAIR" INDICATES FEW OR NO CLOUDS BELOW 12,000 FEET WITH NO
SIGNIFICANT WEATHER AND/OR OBSTRUCTION TO VISIBILITY.

MIZ047>049-052>055-059>063-066>070-074>076-081>083-242200-
SOUTHEAST LOWER MICHIGAN

CITY           SKY/WX    TMP DP  RH WIND       PRES   REMARKS
ADRIAN         MOSUNNY   75  47  36 VRB7      30.08
ALMA           PTSUNNY   72  46  39 NE3       30.09F
ANN ARBOR      MOSUNNY   76  48  37 NE8       30.07F
BAD AXE        SUNNY     71  44  39 NW3       30.09F
CARO           PTSUNNY   72  50  46 NW3       30.08F
DETROIT CITY   PTSUNNY   75  47  36 VRB3      30.07F
DETROIT        PTSUNNY   72  48  42 N7        30.07F
FLINT          PTSUNNY   72  47  40 N5        30.08F
GROSSE ILE     MOSUNNY   75  48  38 E3        30.06F
HILLSDALE      SUNNY     73  48  40 CALM      30.09F
HOWELL         PTSUNNY   71  47  42 N6        30.09F

CITY           SKY/WX    TMP DP  RH WIND       PRES   REMARKS
JACKSON        PTSUNNY   71  51  49 CALM      30.09F
LAMBERTVILLE   MOSUNNY   73  50  43 NE7       30.07F
LANSING        SUNNY     73  49  42 NE5       30.09F
LAPEER         FAIR      73  47  40 N5        30.08F
MASON          MOSUNNY   71  49  45 N6        30.09S
MONROE         PTSUNNY   75  48  38 N6        30.05F
MT. CLEMENS    PTSUNNY   72  54  53 NE9       30.06F
PONTIAC        PTSUNNY   71  47  42 N8        30.07F
PORT HOPE        N/A     67  49  52 E3        30.08F
PORT HURON     SUNNY     70  50  49 N8        30.09S
TRI CITIES     SUNNY     76  49  38 CALM      30.08F
TROY           CLOUDY    72  49  43 NE6       30.08F
SAGINAW HB     PTSUNNY   73  46  38 E9        30.07F
$$
MIZ043>046-050>051-056>058-064>065-071>073-077>080-242200-
SOUTHWEST LOWER MICHIGAN

CITY           SKY/WX    TMP DP  RH WIND       PRES   REMARKS
BATTLE CREEK   MOSUNNY   73  48  41 NE7       30.09F
BENTON HARBOR  SUNNY     67  51  56 VRB7      30.11F
BIG RAPIDS     SUNNY     73  46  36 NW7       30.07F
COLDWATER      MOSUNNY   74  49  41 NE6       30.09F
FREMONT        FAIR      74  44  34 N5        30.07F
HOLLAND        SUNNY     71  51  49 NW9       30.11F
GRAND RAPIDS   MOSUNNY   75  50  41 CALM      30.08F
IONIA          MOCLDY    73  47  39 W5        30.08F
KALAMAZOO      MOSUNNY   73  48  41 CALM      30.09F
LUDINGTON      SUNNY     69  45  40 W8        30.10F
MARSHALL       PTSUNNY   72  51  46 NE3       30.08F
MOUNT PLEASANT MOSUNNY   74  47  37 W3        30.07F
MUSKEGON       MOSUNNY   71  46  40 NW10      30.10F
SOUTH HAVEN    SUNNY     68  54  59 NW9       30.10F
$$
MIZ016>042-242200-
NORTHERN LOWER MICHIGAN

CITY           SKY/WX    TMP DP  RH WIND       PRES   REMARKS
ALPENA         MOSUNNY   73  49  42 CALM      30.05F
BEAVER ISLAND  SUNNY     68  53  59 SW12      30.08F
BELLAIRE       SUNNY     71  45  39 CALM      30.07F
CADILLAC       PTSUNNY   70  50  48 CALM      30.08F
CHARLEVOIX     SUNNY     69  50  49 W12       30.12F
FRANKFORT      SUNNY     72  42  34 W6        30.09F
GAYLORD        SUNNY     70  46  42 W5        30.08F
GRAYLING       MOSUNNY   74  50  42 NW8       30.08F
HARBOR SPRINGS SUNNY     68  51  53 SW8       30.08F
HOUGHTON LAKE  SUNNY     72  48  42 SW9       30.08F
MANISTEE       SUNNY     68  45  42 NW9       30.10F
OSCODA         SUNNY     71  47  41 E7        30.07F
PELLSTON       SUNNY     70  50  49 W8        30.07F
ROGERS CITY    SUNNY     69  54  58 N5        30.07F
TRAVERSE CITY  MOSUNNY   73  44  35 N8        30.06F
$$
MIZ007>008-015-242200-
EASTERN UPPER MICHIGAN

CITY           SKY/WX    TMP DP  RH WIND       PRES   REMARKS
KINROSS        SUNNY     72  52  49 NW10      30.04F
MACKINAC ISLAN SUNNY     66  55  66 SW6G17    30.06F
NEWBERRY       CLOUDY    72  50  45 CALM      30.04F
S. S. MARIE    SUNNY     68  50  52 NW9       30.05F
MUNISING         N/A     70  50  49 NE9       30.04F
$$
MIZ004>006-011>014-085-242200-
CENTRAL UPPER MICHIGAN

CITY           SKY/WX    TMP DP  RH WIND       PRES   REMARKS
MANISTIQUE     SUNNY     65  53  63 SW13G21   30.06F
ESCANABA       SUNNY     70  52  52 SE15      30.05F
MENOMINEE      SUNNY     73  50  43 S8        30.05F
SAWYER-GWINN   MOSUNNY   75  48  38 SW6       30.05F
$$
MIZ001>003-009>011-084-242200-
WESTERN UPPER MICHIGAN

CITY           SKY/WX    TMP DP  RH WIND       PRES   REMARKS
IRON MOUNTAIN  MOSUNNY   77  47  34 S8        30.04F
HOUGHTON       SUNNY     73  46  38 W14       30.04F
COPPER HARBOR    N/A     67  53  61 N12       30.03F
$$

ABBREVIATIONS USED IN REMARKS
   TC - TEMPERATURE IN CELSIUS
  WCI - WIND CHILL INDEX
   HX - HEAT INDEX
  VSB - VISIBILITY




USA.gov is the U.S. government's official web portal to all federal, state and local government web resources and services.